TimeAWST,TemperatureF,Dew PointF,Humidity,Sea Level PressureIn,VisibilityMPH,Wind Direction,Wind SpeedMPH,Gust SpeedMPH,PrecipitationIn,Events,Conditions,WindDirDegrees,DateUTC
12:00 AM,86,36,9,29.77,,SSE,16.1,,,,,160,2012-10-08 16:00:00
12:00 AM,86.0,35.6,17,29.83,-9999.0,SSE,16.1,-,N/A,,Unknown,160,2012-10-08 16:00:00
1:00 AM,82.4,35.6,19,29.80,-9999.0,SSE,12.7,-,N/A,,Unknown,150,2012-10-08 17:00:00
2:00 AM,80,36,12,29.77,,SSE,12.7,,,,,150,2012-10-08 18:00:00
2:00 AM,78.8,35.6,21,29.80,-9999.0,SSE,12.7,-,N/A,,Unknown,150,2012-10-08 18:00:00
3:00 AM,79,37,13,29.77,,SSE,12.7,,,,,150,2012-10-08 19:00:00
3:00 AM,78.8,37.4,23,29.83,-9999.0,SSE,12.7,-,N/A,,Unknown,150,2012-10-08 19:00:00
4:00 AM,77.0,37.4,24,29.83,-9999.0,SE,15.0,-,N/A,,Unknown,140,2012-10-08 20:00:00
5:00 AM,76,39,16,29.82,,SE,13.8,,,,,140,2012-10-08 21:00:00
5:00 AM,75.2,39.2,27,29.86,-9999.0,SE,13.8,-,N/A,,Unknown,140,2012-10-08 21:00:00
6:00 AM,76,40,17,29.84,,SE,15.0,,,,,140,2012-10-08 22:00:00
6:00 AM,75.2,39.2,27,29.89,-9999.0,SE,15.0,-,N/A,,Unknown,140,2012-10-08 22:00:00
7:00 AM,80.6,42.8,26,29.92,-9999.0,SE,20.7,-,N/A,,Unknown,140,2012-10-08 23:00:00
8:00 AM,85,44,14,29.88,,SE,23.0,,,,,130,2012-10-09 00:00:00
8:00 AM,84.2,44.6,25,29.92,-9999.0,SE,23.0,-,N/A,,Unknown,130,2012-10-09 00:00:00
9:00 AM,87,43,13,29.88,,SE,21.9,,,,,140,2012-10-09 01:00:00
10:00 AM,91.4,42.8,18,29.92,-9999.0,SE,20.7,-,N/A,,Unknown,130,2012-10-09 02:00:00
11:00 AM,94,41,8,29.84,,SE,21.9,,,,,140,2012-10-09 03:00:00
11:00 AM,93.2,41.0,16,29.89,-9999.0,SE,21.9,-,N/A,,Unknown,140,2012-10-09 03:00:00
12:00 PM,99,39,6,29.81,,SE,18.4,,,,,140,2012-10-09 04:00:00
12:00 PM,98.6,39.2,13,29.86,-9999.0,SE,18.4,-,N/A,,Unknown,140,2012-10-09 04:00:00
1:00 PM,98.6,37.4,12,29.83,-9999.0,SE,20.7,-,N/A,,Unknown,140,2012-10-09 05:00:00
2:00 PM,100,38,6,29.76,,SSE,20.7,,,,,150,2012-10-09 06:00:00
2:00 PM,100.4,37.4,11,29.80,-9999.0,SSE,20.7,-,N/A,,Unknown,150,2012-10-09 06:00:00
3:00 PM,99,38,6,29.76,,SSE,19.6,,,,,150,2012-10-09 07:00:00
3:00 PM,98.6,37.4,12,29.80,-9999.0,SSE,19.6,-,N/A,,Unknown,150,2012-10-09 07:00:00
4:00 PM,96.8,35.6,12,29.80,-9999.0,SSE,20.7,-,N/A,,Unknown,150,2012-10-09 08:00:00
5:00 PM,95,38,7,29.78,,SSE,18.4,,,,,150,2012-10-09 09:00:00
5:00 PM,95.0,39.2,14,29.83,-9999.0,SSE,18.4,-,N/A,,Unknown,150,2012-10-09 09:00:00
6:00 PM,92,38,8,29.81,,SSE,15.0,,,,,150,2012-10-09 10:00:00
6:00 PM,91.4,37.4,15,29.86,-9999.0,SSE,15.0,-,N/A,,Unknown,150,2012-10-09 10:00:00
7:00 PM,89.6,37.4,16,29.89,-9999.0,SE,12.7,-,N/A,,Unknown,140,2012-10-09 11:00:00
8:00 PM,86,37,10,29.85,,SE,9.2,,,,,140,2012-10-09 12:00:00
8:00 PM,86.0,37.4,18,29.89,-9999.0,SE,9.2,-,N/A,,Unknown,140,2012-10-09 12:00:00
9:00 PM,83,38,12,29.86,,SSE,10.4,,,,,150,2012-10-09 13:00:00
9:00 PM,84.2,39.2,20,29.89,-9999.0,SSE,10.4,-,N/A,,Unknown,150,2012-10-09 13:00:00
10:00 PM,80.6,37.4,21,29.92,-9999.0,SE,10.4,-,N/A,,Unknown,140,2012-10-09 14:00:00
11:00 PM,80,38,13,29.87,,SE,11.5,,,,,140,2012-10-09 15:00:00
11:00 PM,80.6,37.4,21,29.92,-9999.0,SE,11.5,-,N/A,,Unknown,140,2012-10-09 15:00:00